Other Public Products
Issued by NWS Charleston, SC

Current Version | Previous Version | Graphics & Text | Print | Product List | Glossary On
Versions: 1 2 3 4 5 6 7 8 9 10 11 12 13 14 15 16 17 18 19 20 21 22 23 24 25 26 27 28 29 30 31 32 33 34 35 36 37 38 39 40 41 42 43 44 45 46 47 48 49 50
000 FPUS82 KCHS 181227 OPUCHS TEST...KCHS/KSAV Gateway Observations...TEST National Weather Service Charleston SC 800 AM EDT WED OCT 18 2017 NOTE: "fair" indicates few or no clouds below 12,000 feet with no significant weather and/or obstructions to visibility. SCZ050-WAZ558-NCZ071-TXZ119-213-PAZ071-DCZ001-FLZ074-172-MI076- NYZ176-178-MAZ016-IL014-TNZ027-NJZ106-GAZ044-MD014-181300- ...Gateway Observations for Charleston International... CITY SKY/WX TMP DP RH WIND PRES REMARKS Chas Airport CLEAR 52 44 74 NE10 30.29R 6HR MIN TEMP: 51; 6HR MAX TEMP: 53; Seattle CLOUDY 48 41 76 SE6 29.96F 6HR MIN TEMP: 47; 6HR MAX TEMP: 50; Charlotte PTCLDY 42 41 96 N5 30.37R 6HR MIN TEMP: 40; 6HR MAX TEMP: 46; Dallas DFW CLEAR 50 44 80 SE3 30.13R 6HR MIN TEMP: 50; 6HR MAX TEMP: 60; Dallas Love CLEAR 53 44 71 SE7 30.15R 6HR MIN TEMP: 52; 6HR MAX TEMP: 60; Philladelphia CLEAR 49 41 74 SW5 30.36R 6HR MIN TEMP: 48; 6HR MAX TEMP: 50; Wash National CLEAR 48 40 73 CALM 30.38S 6HR MIN TEMP: 45; 6HR MAX TEMP: 50; Baltimore CLEAR 42 40 92 SW3 30.36R 6HR MIN TEMP: 39; 6HR MAX TEMP: 43; Miami CLOUDY 80 75 84 CALM 30.01R 6HR MIN TEMP: 77; 6HR MAX TEMP: 82; 6HR PCP: 0.02; Detroit CLEAR 46 41 82 S9 30.26S 6HR MIN TEMP: 44; 6HR MAX TEMP: 50; Newark CLEAR 47 39 74 SW7 30.32S 6HR MIN TEMP: 45; 6HR MAX TEMP: 48; Laguardia CLEAR 53 38 56 SW5 30.31R 6HR MIN TEMP: 52; 6HR MAX TEMP: 55; J F K PTCLDY 51 41 68 W10 30.33R 6HR MIN TEMP: 50; 6HR MAX TEMP: 53; Boston Logan PTCLDY 52 38 58 SW12 30.23R 6HR MIN TEMP: 47; 6HR MAX TEMP: 52; Ft. Lauderdale CLOUDY 77 76 96 N5 30.00R 6HR MIN TEMP: 76; 6HR MAX TEMP: 80; 6HR PCP: TRACE; Chicago O`Hare CLEAR 49 41 74 S7 30.15S 6HR MIN TEMP: 47; 6HR MAX TEMP: 56; Chicago Midway CLEAR 50 41 71 S8 30.17S 6HR MIN TEMP: 50; 6HR MAX TEMP: 54; Houston Bush CLEAR 53 50 89 CALM 30.15S 6HR MIN TEMP: 50; 6HR MAX TEMP: 56; Houston Hobby CLEAR 58 50 75 CALM 30.14S 6HR MIN TEMP: 57; 6HR MAX TEMP: 60; Nashville PTCLDY 42 40 92 CALM 30.31R 6HR MIN TEMP: 42; 6HR MAX TEMP: 47; Atlanta PTCLDY 49 42 77 E9 30.32R 6HR MIN TEMP: 48; 6HR MAX TEMP: 52; $$ GAZ044-118-TXZ119-213-NCZ071-DCZ001-MDZ014-506-PAZ021-071-NJZ106- NYZ176-178-MAZ106-OHZ011-021-055-MIZ076-KYZ091-ILZ014-INZ047- MNZ060-ONZ431-181300- ...Gateway Observations for Savannah International... CITY SKY/WX TMP DP RH WIND PRES REMARKS Savannah Arpt PTCLDY 54 46 74 NE9 30.27R 6HR MIN TEMP: 53; 6HR MAX TEMP: 56; Atlanta PTCLDY 49 42 77 E9 30.32R 6HR MIN TEMP: 48; 6HR MAX TEMP: 52; Charlotte PTCLDY 42 41 96 N5 30.37R 6HR MIN TEMP: 40; 6HR MAX TEMP: 46; Dallas DFW CLEAR 50 44 80 SE3 30.13R 6HR MIN TEMP: 50; 6HR MAX TEMP: 60; Houston Bush CLEAR 53 50 89 CALM 30.15S 6HR MIN TEMP: 50; 6HR MAX TEMP: 56; Wash National CLEAR 48 40 73 CALM 30.38S 6HR MIN TEMP: 45; 6HR MAX TEMP: 50; Wash Dulles CLEAR 38 37 97 CALM 30.38R 6HR MIN TEMP: 36; 6HR MAX TEMP: 41; Baltimore CLEAR 42 40 92 SW3 30.36R 6HR MIN TEMP: 39; 6HR MAX TEMP: 43; Philadelphia CLEAR 49 41 74 SW5 30.36R 6HR MIN TEMP: 48; 6HR MAX TEMP: 50; Newark CLEAR 47 39 74 SW7 30.32S 6HR MIN TEMP: 45; 6HR MAX TEMP: 48; Laguardia CLEAR 53 38 56 SW5 30.31R 6HR MIN TEMP: 52; 6HR MAX TEMP: 55; J F K PTCLDY 51 41 68 W10 30.33R 6HR MIN TEMP: 50; 6HR MAX TEMP: 53; Boston PTCLDY 52 38 58 SW12 30.23R 6HR MIN TEMP: 47; 6HR MAX TEMP: 52; Pittsburg CLEAR 41 37 86 CALM 30.34R 6HR MIN TEMP: 39; 6HR MAX TEMP: 48; Akron CLEAR 44 37 76 S5 30.32R 6HR MIN TEMP: 43; 6HR MAX TEMP: 50; Cleveland CLEAR 47 40 76 S3 30.32S 6HR MIN TEMP: 47; 6HR MAX TEMP: 54; Cincinnati PTCLDY 44 41 89 S3 30.30S 6HR MIN TEMP: 39; 6HR MAX TEMP: 48; Columbus CLEAR 39 39 100 CALM 30.32S Detroit CLEAR 46 41 82 S9 30.26S 6HR MIN TEMP: 44; 6HR MAX TEMP: 50; Chicago O`Hare CLEAR 49 41 74 S7 30.15S 6HR MIN TEMP: 47; 6HR MAX TEMP: 56; Minneapolis PTCLDY 49 45 86 SE8 29.83F 6HR MIN TEMP: 48; 6HR MAX TEMP: 61; Indianapolis CLEAR 44 40 85 E5 30.27S 6HR MIN TEMP: 43; 6HR MAX TEMP: 49; Toronto Canada PTCLDY 52 43 71 VRB2 30.21S $$

USA.gov is the U.S. government's official web portal to all federal, state and local government web resources and services.